Tracking 17631 objects as of 5-May-2016
HD Live streaming from Space Station
objects crossing your sky now

CRRES DEB (CANISTER)

Track CRRES DEB (CANISTER) now!


NORAD ID: 21590
Int'l Code: 1990-065F
Perigee: 347.4 km
Apogee: 31,258.4 km
Inclination: 20.0 °
Period: 547.7 minutes
Semi major axis: 22173 km
RCS: 0.1267 m2 (medium)
Launch date: July 25, 1990
Source: United States (US)
Launch site: AIR FORCE EASTERN TEST RANGE (AFETR)

Note: This is SATELLITE DEBRIS
Your satellite tracking list
Your tracking list is empty





NASA's NSSDC Master Catalog

Two Line Element Set (TLE):
1 21590U 90065F   16125.91220614  .00000459  00000-0  31203-3 0  9997
2 21590  20.0186 236.3274 6970119 101.1989 338.1055  2.62929731222726
Source of the keplerian elements: AFSPC

N2YO: 324